Location: Theydon Bois
(51.6750°N, 0.1050°E)
Time: 07:07:27
(UTC+01:00)

Daily predictions for brighter satellites

Satellite Brightness Start Highest point End
(mag) Time Altitude Azimuth Time Altitude Azimuth Time Altitude Azimuth
Resurs 1-3 3.6 20:39:16 10° SSE 20:43:39 81° ENE 20:48:04 10° NNW
ATLAS 5 CENTAUR R/B 4.2 20:40:05 10° S 20:45:10 47° ESE 21:03:38 10° NE
Cosmos 1980 3.7 20:41:13 10° SSW 20:46:53 87° ESE 20:52:35 10° NNE
USA 267 3.7 20:44:10 10° E 20:50:37 63° NNE 20:57:05 10° WNW
Lacrosse 4 Rocket 2.8 20:47:56 10° NW 20:51:57 38° WSW 20:55:50 10° S
GEOS 3 Rocket 3.8 20:47:13 10° SE 20:52:37 89° SW 20:58:01 10° NW
SL-08 RB Rocket 4.5 20:48:45 10° SE 20:52:47 34° ENE 20:56:50 10° N
EO 1 Del DPAF 3.5 20:52:10 10° NNE 20:55:59 75° WNW 20:59:48 10° SSW
Cosmos 1459 Rocket 3.9 20:52:51 10° N 20:58:57 74° ENE 21:05:00 10° SSE
Cosmos 2219 Rocket 3.4 20:53:59 10° SW 20:59:25 48° NW 21:04:53 10° NNE
Cosmos 1733 Rocket 4.4 20:55:42 10° SSW 20:59:57 45° WNW 21:04:13 10° N
USA 186 3.4 20:57:11 10° SSW 21:00:02 35° W 21:03:05 10° NNW
Cosmos 2369 Rocket 3.0 20:56:28 10° NNW 21:01:45 39° NE 21:06:53 11° ESE
Cosmos 1242 Rocket 3.9 20:59:01 10° SE 21:01:48 21° E 21:04:37 10° NE
Cosmos 1500 4.5 21:07:50 11° SE 21:10:30 22° E 21:13:26 10° NE
Cosmos 1536 3.3 21:09:06 10° SSE 21:12:48 39° E 21:16:33 10° NNE
Cosmos 2084 Rocket 4.3 21:08:56 10° NW 21:12:52 39° NNE 21:16:23 12° E
Terra 3.6 21:11:34 10° E 21:14:40 18° NE 21:17:48 10° NNE
Cosmos 1607 4.4 21:09:31 10° S 21:15:27 40° ESE 21:21:23 10° NE
Cosmos 2173 Rocket 4.1 21:09:07 10° N 21:15:31 87° W 21:21:55 10° S
Cosmos 1943 Rocket 2.9 21:12:07 10° NNW 21:17:29 41° NE 21:22:05 13° ESE
ERS-2 2.2 21:14:27 10° SSE 21:18:02 63° ENE 21:21:42 10° N
Cosmos 1727 Rocket 4.5 21:12:07 10° SSW 21:18:24 67° WNW 21:24:40 10° N
Cosmos 1536 Rocket 4.2 21:15:29 10° N 21:19:42 40° ENE 21:23:10 14° SE
Cosmos 2278 Rocket 4.4 21:15:49 10° NW 21:20:04 22° WSW 21:24:19 10° SSW
Sich 1 Rocket 3.7 21:15:54 10° S 21:20:28 90° ESE 21:25:06 10° N
SL-16 R/B 2.2 21:15:00 10° SSW 21:20:37 66° ESE 21:26:17 10° NE
Cosmos 1802 Rocket 4.1 21:15:38 10° N 21:21:56 89° E 21:28:19 10° S
CZ-4B DEB 4.4 21:20:09 10° SSE 21:23:38 84° ENE 21:27:09 10° NNW
MetOp-A 4.1 21:18:58 10° SSE 21:24:19 77° ENE 21:29:41 10° NNW
Cosmos 1000 Rocket 4.4 21:18:24 10° S 21:24:31 77° E 21:30:41 10° NNE
Okean 2 Rocket 3.1 21:25:43 10° S 21:30:07 60° E 21:34:31 10° NNE
Cosmos 1725 Rocket 4.0 21:25:01 10° N 21:31:13 70° ENE 21:37:15 11° SSE
Thor Agena Rocket 3.6 21:27:09 10° NNE 21:32:24 87° WNW 21:37:40 10° SSW
Meteor 2-4 Rocket 4.1 21:27:49 10° NNW 21:33:07 62° W 21:38:30 10° S
Cosmos 2061 Rocket 4.2 21:29:46 10° NNW 21:36:14 77° W 21:42:35 10° S
Cosmos 1864 Rocket 4.5 21:34:13 10° N 21:40:29 80° E 21:46:24 11° SSE
Cosmos 1943 4.3 21:38:56 18° SE 21:41:13 23° ESE 21:45:31 10° NE
Cosmos 1300 Rocket 4.2 21:39:37 18° SSE 21:42:23 37° E 21:46:29 10° NNE
Aureole 3 4.4 21:38:25 10° S 21:43:37 86° W 21:50:19 10° N
Cosmos 2084 4.4 21:40:12 10° WSW 21:44:20 48° NW 21:48:18 10° NE
ARGOS 3.4 21:41:28 10° S 21:46:48 69° WSW 21:52:10 10° NNW
Meteor 1-23 Rocket 4.4 21:46:08 10° NNW 21:51:47 76° W 21:57:05 11° S
ERS-1 Rocket 2.9 21:49:13 18° SSE 21:53:00 77° ENE 21:58:02 10° NNW
H-2A R/B 2.2 21:49:36 11° S 21:54:25 68° WSW 21:59:22 10° NNW
USA 215 3.5 21:49:50 10° ENE 21:56:00 43° SE 22:02:09 10° SSW
Cosmos 2016 Rocket 4.4 21:51:40 10° NNW 21:57:41 62° W 22:03:41 10° S
Meteor 1-5 Rocket 4.2 21:53:13 10° SSW 21:58:43 81° WNW 22:04:06 10° N
USA 245 1.7 21:58:53 66° SE 21:59:07 80° ENE 22:01:29 10° NNW
Cosmos 2233 Rocket 3.9 21:54:38 10° N 22:00:48 74° E 22:05:17 20° SSE
SPOT 5 2.8 21:58:56 25° SE 22:01:23 60° ENE 22:05:42 10° N
SPOT 1/Viking Rocket 3.6 21:58:06 22° SE 22:01:25 65° ENE 22:06:36 10° N
Resurs 01 Rocket 3.9 21:59:34 10° SW 22:03:00 22° W 22:06:26 10° NW
Cosmos 1603 3.9 21:59:26 10° S 22:04:56 51° ESE 22:10:30 10° NE
Cosmos 1066 Rocket 4.0 22:06:10 10° NNW 22:11:34 84° ENE 22:14:53 24° SSE
GP-B 3.1 22:09:08 10° N 22:13:33 61° E 22:15:35 30° SSE
CZ-4C R/B 4.1 22:08:31 10° NW 22:14:09 32° NNE 22:20:36 10° ENE
CZ-2C R/B 3.2 22:12:32 29° SE 22:14:40 51° ENE 22:19:22 10° N
Cosmos 2123 Rocket 4.1 22:08:34 10° SSW 22:14:52 81° W 22:21:16 10° N
Cosmos 407 Rocket 3.7 22:10:35 10° NNW 22:15:53 61° ENE 22:18:26 30° SE
Cosmos 1656 Rocket 4.1 22:14:04 10° NNW 22:19:20 47° NE 22:22:00 27° ESE
Cosmos 1932 4.5 22:14:29 10° SSW 22:20:37 56° ESE 22:26:44 10° NE
USA 81 4.3 22:16:10 10° SSW 22:21:25 69° W 22:26:43 10° N
Cosmos 2263 4.2 22:15:49 10° NNW 22:21:39 89° W 22:24:43 30° SSE
Cosmos 2151 Rocket 3.8 22:18:38 13° SSW 22:22:40 74° W 22:27:14 10° N
ATLAS 3B R/B 4.4 22:25:37 14° E 22:25:37 14° E 22:27:43 10° ENE
Cosmos 1743 3.2 22:23:56 39° ESE 22:24:21 40° E 22:28:02 10° NNE
Cosmos 2237 Rocket 4.4 22:20:03 10° W 22:24:57 28° NW 22:29:51 10° NNE
Okean 1 Rocket 3.3 22:23:27 36° SSE 22:24:59 54° E 22:29:23 10° NNE
Helios 1A 2.9 22:24:12 38° SSE 22:25:44 77° ENE 22:29:54 10° NNW
Landsat 7 3.8 22:29:11 32° SSE 22:31:23 86° WSW 22:36:12 10° NNW
Cosmos 1140 Rocket 4.0 22:26:44 10° NNW 22:31:51 49° ENE 22:33:56 32° ESE
USA 267 3.2 22:29:52 28° SE 22:33:36 76° SSW 22:40:10 10° WNW
Cosmos 1975 2.8 22:34:29 47° SSE 22:35:23 62° E 22:39:27 10° NNE
Cosmos 1242 Rocket 4.2 22:33:16 10° SW 22:36:33 33° WNW 22:39:54 10° N
Cosmos 1954 Rocket 4.4 22:34:50 10° NNW 22:40:05 54° ENE 22:42:03 35° ESE
CZ-2C R/B 3.2 22:35:53 10° NNE 22:40:49 37° E 22:41:45 34° ESE
Meteor 1-12 Rocket 4.5 22:39:29 35° SSE 22:41:32 51° E 22:47:01 10° NNE
DMSP B5D2-2 4.1 22:36:21 10° NNE 22:41:38 81° WNW 22:45:41 17° SSW
Okean 1-7 Rocket 3.6 22:38:17 10° N 22:42:52 67° ENE 22:44:02 47° SE
IGS 5A 3.4 22:41:44 46° S 22:42:56 83° WSW 22:47:09 10° NNW
Okean 2 4.4 22:40:27 10° NNW 22:44:25 43° W 22:46:25 25° SSW
BREEZE M DEB (TANK) 4.1 22:41:28 10° SW 22:45:16 52° SSE 22:57:22 10° ENE
Cosmos 1315 Rocket 4.3 22:42:27 10° NNE 22:45:37 23° ENE 22:45:54 22° ENE
Cosmos 2369 Rocket 2.8 22:40:32 10° NW 22:45:55 48° WSW 22:48:41 27° S
Meteor 1-29 4.4 22:43:40 10° NNE 22:45:47 25° ENE 22:45:47 25° ENE
CARTOSAT-1 3.5 22:46:12 45° S 22:47:30 79° WSW 22:51:51 10° NNW
Cosmos 1025 Rocket 3.5 22:43:54 10° NNW 22:48:11 56° W 22:49:56 33° SSW
Cosmos 1666 2.5 22:50:17 60° SSW 22:50:56 87° WNW 22:54:44 10° N
Terra 1.8 22:50:16 43° S 22:51:50 85° WSW 22:56:38 10° NNW
Cosmos 2084 Rocket 3.9 22:48:31 10° NW 22:52:24 42° SW 22:52:54 40° SSW
NOSS 2-1 (E) 4.5 22:47:57 10° NW 22:53:32 89° NE 22:56:50 35° SE
Helios 1B rocket 2.5 22:54:04 10° NNE 22:58:11 58° ESE 22:58:18 57° ESE
Cosmos 1943 Rocket 2.9 22:55:58 10° NW 23:01:20 45° WSW 23:03:36 30° SSW
SL-24 R/B 4.3 23:00:50 51° ESE 23:01:28 56° ENE 23:05:43 10° N
SL-16 R/B 4.1 23:00:09 10° WSW 23:05:11 31° NW 23:10:15 10° NNE
Cosmos 1892 Rocket 3.4 23:03:44 10° N 23:08:06 80° E 23:08:36 68° SE
USA 238 DEB 4.3 23:08:37 35° ESE 23:08:48 35° ESE 23:14:57 10° NE
USA 238 4.3 23:08:46 35° ESE 23:08:55 35° ESE 23:15:04 10° NE
H-2A R/B 4.5 23:07:36 12° ENE 23:09:04 13° NE 23:11:14 10° NNE
Spot 1 4.2 23:08:09 54° S 23:09:12 81° WSW 23:13:44 10° NNW
Cosmos 1452 Rocket 4.4 23:10:49 32° E 23:10:49 32° E 23:15:05 10° NE
Cosmos 1624 Rocket 3.9 23:10:38 44° S 23:12:20 78° ESE 23:17:38 10° NNE
Nimbus 7 Rocket 4.4 23:07:02 10° NNE 23:12:59 61° ESE 23:14:35 45° SSE
Cosmos 1371 Rocket 3.9 23:12:25 37° SSW 23:14:33 89° WNW 23:19:49 10° NNE
SeaSat 1 4.0 23:12:54 10° NE 23:15:32 21° E 23:15:32 21° E
COBE Rocket 3.6 23:13:00 10° NNE 23:17:47 81° ESE 23:18:33 62° S
Alouette 2 Rocket 3.2 23:18:22 72° WSW 23:18:34 75° WNW 23:22:45 10° NNE
Cosmos 1891 Rocket 4.5 23:12:58 10° NNW 23:19:05 78° W 23:21:24 41° S
Cosmos 1464 Rocket 4.1 23:12:58 10° NNW 23:19:18 73° W 23:21:54 38° S
Cosmos 2056 Rocket 3.4 23:18:25 45° SSW 23:20:05 84° ESE 23:25:29 10° NNE
Iridium 2 4.4 23:18:45 10° N 23:22:01 45° NE 23:22:01 45° NE
Cosmos 1842 3.4 23:19:00 10° NNW 23:22:54 65° W 23:22:57 65° W
Cosmos 1943 3.3 23:20:40 20° SW 23:24:44 74° WNW 23:30:24 10° NNE
Cosmos 676 Rocket 4.2 23:21:01 10° NNW 23:26:20 66° WSW 23:27:28 51° SSW
YAOGAN 11 4.2 23:29:04 59° SW 23:29:27 63° WSW 23:33:49 10° NNW
Spot 4 3.7 23:30:25 69° SSE 23:30:59 87° ENE 23:35:48 10° NNW
Cosmos 1400 Rocket 3.0 23:27:35 10° NNW 23:31:43 65° W 23:31:46 65° WSW
NOSS 3-3 (A) 4.4 23:30:40 10° NW 23:38:00 86° NE 23:41:14 40° SE
NOSS 3-3 (C) 4.4 23:30:46 10° NW 23:38:06 86° NE 23:41:21 40° SE
USA 215 3.2 23:32:51 10° ENE 23:39:25 84° NNW 23:45:58 10° WSW
Cosmos 614 Rocket 4.4 23:35:46 10° NNW 23:40:45 49° WSW 23:41:35 45° SW
Cosmos 1602 Rocket 3.8 23:36:50 10° N 23:41:05 57° ENE 23:41:05 57° ENE
Mayak 0.3 23:38:38 10° NNE 23:41:20 26° ENE 23:41:20 26° ENE
Cosmos 724 4.2 23:39:14 28° SW 23:42:29 86° NW 23:48:31 10° NE
ALOS 2 3.3 23:42:40 43° ENE 23:42:45 43° ENE 23:46:56 10° N
BREEZE-M DEB (TANK) 3.5 23:36:57 10° W 23:43:37 52° WSW 23:43:37 52° WSW
Cosmos 1980 Rocket 4.3 23:45:07 10° NNW 23:49:23 21° NNE 23:53:38 10° E
COSMOS 2406 4.3 23:52:02 30° E 23:52:02 30° E 23:56:19 10° NE
Cosmos 1420 Rocket 4.0 23:52:13 61° ESE 23:52:13 61° ESE 23:57:19 10° NNE
CZ-2C R/B 4.5 23:53:36 21° WSW 23:54:52 24° W 23:58:48 10° NW
